Weather History for Paganella, Italy

Change the Weather History Date:

Thursday, March 7, 2013

  Actual Average Record
Temperature  
Mean Temperature 31 °F -  
Max Temperature 34 °F 31 °F 41 °F (1998)
Min Temperature 28 °F 22 °F 1 °F (2005)
Degree Days  
Heating Degree Days 34    
Moisture  
Dew Point 31 °F    
Average Humidity 97    
Maximum Humidity 100    
Minimum Humidity 84    
Precipitation  
Precipitation 0.01 in 0.05 in - ()
Sea Level Pressure  
Sea Level Pressure 29.64 in    
Wind  
Wind Speed 10 mph ()    
Max Wind Speed 16 mph    
Max Gust Speed -    
Visibility 0.0 miles    
Events Fog , Snow    
Averages and records for this station are not official NWS values.
T = Trace of Precipitation, MM = Missing Value Source: Averaged Metar Reports

Daily Weather History Graph

Daily Weather History Graph

Search for Another Location

Airport:

Trip Planner

Search our weather history database for the weather conditions in past years. The results will help you decide how hot, cold, wet, or windy it might be!

Date:

Astronomy

Mar. 07, 2013 Rise Set
Actual Time 6:43 AM CET 6:10 PM CET
Civil Twilight 6:13 AM CET 6:40 PM CET
Nautical Twilight 5:39 AM CET 7:15 PM CET
Astronomical Twilight 5:04 AM CET 7:50 PM CET
Moon 3:42 AM CET (3/7) 1:27 PM CET (3/7)
Length of Visible Light 12h 26m
Length of Day
11h 26m
Waning Crescent, 22% of the Moon is Illuminated
Mar 7
Waning Crescent
Mar 11
New
Mar 19
First Quarter
Mar 27
Full
Apr 3
Last Quarter

Hourly Weather History & Observations

Time (CET) Temp. Windchill Dew Point Humidity Pressure Visibility Wind Dir Wind Speed Gust Speed Precip Events Conditions
12:55 AM 28.4 °F 19.1 °F 28.4 °F 100% 29.68 in - SE 10.4 mph - N/A Fog Light Freezing Fog
1:00 AM 29 °F - 29 °F 99%  in 0 mi SE 10.4 mph - - Snow Light Snow
1:55 AM 28.4 °F 17.0 °F 28.4 °F 100% 29.68 in - SE 15.0 mph - N/A Fog Light Freezing Fog
2:55 AM 28.4 °F 18.5 °F 28.4 °F 100% 29.65 in - ESE 11.5 mph - N/A Fog Light Freezing Fog
3:55 AM 28.4 °F 19.1 °F 28.4 °F 100% 29.65 in - SE 10.4 mph - N/A Fog Light Freezing Fog
4:00 AM 29 °F - 29 °F 99%  in 0 mi SE 10.4 mph - - Snow Light Snow
4:55 AM 28.4 °F 18.5 °F 28.4 °F 100% 29.65 in 0.1 mi SE 11.5 mph - N/A Fog , Snow Light Snow
5:55 AM 30.2 °F 21.3 °F 30.2 °F 100% 29.62 in - SE 10.4 mph - N/A Fog Light Freezing Fog
6:55 AM 30.2 °F 22.6 °F 30.2 °F 100% 29.62 in - SSE 8.1 mph - N/A Fog Light Freezing Fog
7:00 AM 30 °F - 30 °F 99%  in 0 mi SSE 8.1 mph - - Snow Light Snow
7:55 AM 30.2 °F 24.3 °F 30.2 °F 100% 29.62 in 0.0 mi South 5.8 mph - N/A Fog Light Freezing Fog
8:55 AM 30.2 °F 24.3 °F 30.2 °F 100% 29.62 in 0.0 mi South 5.8 mph - N/A Fog Light Freezing Fog
9:55 AM 32.0 °F 23.0 °F 32.0 °F 100% 29.65 in 0.1 mi SSW 11.5 mph - N/A Fog Light Freezing Fog
10:00 AM 31 °F - 31 °F 100%  in 0 mi SSW 11.5 mph - - Fog Heavy Fog
10:55 AM 32.0 °F 24.2 °F 32.0 °F 100% 29.65 in 0.1 mi SSW 9.2 mph - N/A Fog Light Freezing Fog
11:55 AM 32.0 °F 23.6 °F 32.0 °F 100% 29.65 in 0.0 mi South 10.4 mph - N/A Fog Fog
12:55 PM 33.8 °F 26.4 °F 32.0 °F 93% 29.65 in 0.0 mi SSW 9.2 mph - N/A Fog Fog
1:00 PM 33 °F - 32 °F 96%  in 0 mi SSW 9.2 mph - - Fog Heavy Fog
1:55 PM 33.8 °F 24.8 °F 30.2 °F 87% 29.65 in - South 12.7 mph - N/A Fog Fog
2:55 PM 32.0 °F 21.6 °F 30.2 °F 93% 29.65 in - SSW 15.0 mph - N/A Fog Fog
3:55 PM 33.8 °F 24.3 °F 30.2 °F 87% 29.62 in - South 13.8 mph - N/A Fog Fog
4:00 PM 34 °F - 31 °F 84%  in 0 mi South 13.8 mph - - Snow Light Snow
4:55 PM 32.0 °F 21.6 °F 30.2 °F 93% 29.62 in 0.0 mi South 15.0 mph - N/A Fog Fog
5:55 PM 32.0 °F 22.1 °F 32.0 °F 100% 29.62 in - South 13.8 mph - N/A Fog Light Freezing Fog
6:55 PM 32.0 °F 22.5 °F 30.2 °F 93% 29.62 in - South 12.7 mph - N/A Fog Light Freezing Fog
7:00 PM 31 °F - 31 °F 99%  in 0 mi South 12.7 mph - - Snow Light Snow
7:55 PM 32.0 °F 21.6 °F 30.2 °F 93% 29.65 in - South 15.0 mph - N/A Fog Light Freezing Fog
8:55 PM 32.0 °F 21.2 °F 32.0 °F 100% 29.65 in - SSW 16.1 mph - N/A Fog Light Freezing Fog
9:55 PM 32.0 °F 21.6 °F 32.0 °F 100% 29.65 in - South 15.0 mph - N/A Fog Light Freezing Fog
10:00 PM 31 °F - 31 °F 100%  in 0 mi South 15.0 mph - - Snow Light Snow
10:55 PM 32.0 °F 22.1 °F 32.0 °F 100% 29.65 in - South 13.8 mph - N/A Fog Light Freezing Fog
11:55 PM 32.0 °F 21.2 °F 32.0 °F 100% 29.62 in - SSW 16.1 mph - N/A Fog Light Freezing Fog